COSMOS 1275 DEB, 12676

Orbit data source: Space-Track

COSMOS 1275 DEB, 12676 is space debris in LEO originally from a launch on Thu, 04 Jun 1981 UTC launched from the Plesetsk Missile And Space Complex (PKMTR). Debris objects in space refer to the collection of defunct objects orbiting the Earth. Examples of debris include non-operational satellites, rocket bodies, and fragments generated from explosions, collisions, or faulty payload assembly.

Loading next visibility...
Identifier
12676, 1981-053AG
Orbit
LEO
Country
Flag of CISCIS
Related business
Manufacturer
Unknown
Mission
Spacecraft
Bus & Motor
Unknown
Mass
Unknown
Launch date (UTC)
1981-06-04 (45 years ago)
Launch vehicle
Unknown
Launch site
Plesetsk Missile And Space Complex (PKMTR)
Object type
Payload
Rocket body
Debris
Shape & HBR
Unknown shape, 0.6 m
Radar Cross Section
Medium (>0.1 m² and <1 m²)

Expand to show TLE details & history
Last TLE update: 1 day ago

TLE from 1 day ago
0 COSMOS 1275 DEB
1 12676U 81053AG  26171.35622631  .00000407  00000-0  33242-3 0  9992
2 12676  82.9438 118.1625 0045545  88.9545  27.2545 13.86834849261169
Epoch: 2026-06-20T08:32Z
TLE epoch observation values (Epoch: 2026-06-20T08:32:57.953Z)
Latitude
62.78179°
Longitude
-112.50223°
Altitude
920.927 km
Speed
7.412 km/s
True Right ascension
18h 57m 14s
True Declination
62° 38' 41"
Sunlit
Object was in daylight at epoch
Visualization orbit readout
Latitude
Unknown
Longitude
Unknown
Altitude
Unknown
Speed
Unknown
Apparent Right ascension
Unknown
Apparent Declination
Unknown
Sunlit
N/A
Visualization observer readout
Local Sidereal Time
02:46:09
Azimuth
Unknown
Elevation
Unknown
Doppler factor
Unknown
Orbital elements
Apogee altitude
970.193 km
Perigee altitude
903.56 km
Semi-major axis
7,315.013 km
Eccentricity
0.00455
Inclination
82.9438°
RAAN
118.1625°
Arg. of periapsis
88.9545°
True anomaly
27.49472°
Mean anomaly
27.2545°
Eccentric anomaly
27.37449°
Mean motion
3.46913 °/min
Orbital period
103.77 mins
BSTAR
0.00033242
Loading maneuver chart data...
Computing Atmospheric mass density...

Documentation

Showing up to 5 results
|